Weather History for Abilene, TX

Change the Weather History Date:

Thursday, May 24, 2012

  Actual Average Record
Temperature  
Mean Temperature 88 °F 75 °F  
Max Temperature 102 °F 86 °F 109 °F (2000)
Min Temperature 73 °F 64 °F 48 °F (1930)
Degree Days  
Heating Degree Days 0 0  
Month to date heating degree days 5 13  
Since 1 July heating degree days 2089 2555  
Cooling Degree Days 23 10  
Month to date cooling degree days 248 187  
Year to date cooling degree days 543 320  
Growing Degree Days 38 (Base 50)    
Moisture  
Dew Point 58 °F    
Average Humidity 48    
Maximum Humidity 84    
Minimum Humidity 11    
Precipitation  
Precipitation 0.00 in 0.12 in 3.25 in (1933)
Month to date precipitation 1.98 2.30  
Year to date precipitation 8.53 8.06  
Sea Level Pressure  
Sea Level Pressure 29.50 in    
Wind  
Wind Speed 15 mph (SSW)    
Max Wind Speed 26 mph    
Max Gust Speed 36 mph    
Visibility 10 miles    
Events      
T = Trace of Precipitation, MM = Missing Value Source: NWS Daily Summary

Daily Weather History Graph

Daily Weather History Graph

Search for Another Location

Airport:

Trip Planner

Search our weather history database for the weather conditions in past years. The results will help you decide how hot, cold, wet, or windy it might be!

Date:

Astronomy

May. 24, 2012 Rise Set
Actual Time 6:35 AM CDT 8:36 PM CDT
Civil Twilight 6:07 AM CDT 9:04 PM CDT
Nautical Twilight 5:34 AM CDT 9:37 PM CDT
Astronomical Twilight 4:58 AM CDT 10:13 PM CDT
Moon 9:35 AM CDT (5/24) 11:41 PM CDT (5/24)
Length of Visible Light 14h 56m
Length of Day
14h 01m
Waxing Crescent, 12% of the Moon is Illuminated
May 24
Waxing Crescent
May 28
First Quarter
Jun 4
Full
Jun 11
Last Quarter
Jun 19
New

Hourly Weather History & Observations

Time (CDT) Temp. Heat Index Dew Point Humidity Pressure Visibility Wind Dir Wind Speed Gust Speed Precip Events Conditions
12:52 AM 79.0 °F - 66.0 °F 64% 29.47 in 10.0 mi South 17.3 mph 24.2 mph N/A   Clear
1:52 AM 78.1 °F - 66.0 °F 66% 29.46 in 10.0 mi South 16.1 mph 24.2 mph N/A   Clear
2:52 AM 77.0 °F - 66.9 °F 71% 29.54 in 10.0 mi South 18.4 mph 28.8 mph N/A   Mostly Cloudy
3:52 AM 75.9 °F - 68.0 °F 76% 29.44 in 10.0 mi South 19.6 mph 26.5 mph N/A   Partly Cloudy
4:52 AM 75.0 °F - 68.0 °F 79% 29.45 in 10.0 mi South 15.0 mph 20.7 mph N/A   Clear
5:52 AM 73.9 °F - 68.0 °F 82% 29.47 in 10.0 mi South 13.8 mph 21.9 mph N/A   Clear
6:52 AM 73.9 °F - 66.9 °F 79% 29.49 in 10.0 mi South 12.7 mph - N/A   Clear
7:52 AM 75.0 °F - 66.9 °F 76% 29.49 in 10.0 mi SSW 24.2 mph 35.7 mph N/A   Clear
8:52 AM 77.0 °F - 68.0 °F 74% 29.51 in 10.0 mi SSW 25.3 mph 32.2 mph N/A   Clear
9:52 AM 81.0 °F 83.3 °F 66.9 °F 62% 29.53 in 10.0 mi SSW 18.4 mph 25.3 mph N/A   Clear
10:52 AM 86.0 °F 88.2 °F 66.0 °F 51% 29.53 in 10.0 mi SSW 16.1 mph 23.0 mph N/A   Clear
11:52 AM 91.0 °F 91.5 °F 62.1 °F 38% 29.54 in 10.0 mi SW 15.0 mph - N/A   Clear
12:52 PM 95.0 °F 93.4 °F 55.9 °F 27% 29.54 in 10.0 mi WSW 11.5 mph - N/A   Clear
1:52 PM 97.0 °F - 48.9 °F 19% 29.53 in 10.0 mi SW 9.2 mph - N/A   Clear
2:52 PM 100.0 °F - 45.0 °F 15% 29.51 in 10.0 mi SW 10.4 mph 16.1 mph N/A   Clear
3:52 PM 100.9 °F - 42.1 °F 13% 29.49 in 10.0 mi SW 8.1 mph 18.4 mph N/A   Clear
4:52 PM 100.9 °F - 42.1 °F 13% 29.48 in 10.0 mi West 9.2 mph 19.6 mph N/A   Clear
5:52 PM 100.9 °F - 36.0 °F 11% 29.48 in 10.0 mi SSW 9.2 mph 20.7 mph N/A   Clear
6:52 PM 100.0 °F - 35.1 °F 10% 29.47 in 10.0 mi South 12.7 mph - N/A   Clear
7:52 PM 96.1 °F - 36.0 °F 12% 29.48 in 10.0 mi South 10.4 mph - N/A   Clear
8:52 PM 89.1 °F - 52.0 °F 28% 29.51 in 10.0 mi SSE 16.1 mph 20.7 mph N/A   Clear
9:52 PM 87.1 °F 90.6 °F 68.0 °F 53% 29.53 in 10.0 mi SSE 19.6 mph 31.1 mph N/A   Clear
10:52 PM 84.0 °F 87.0 °F 68.0 °F 58% 29.57 in 10.0 mi SSE 19.6 mph 24.2 mph N/A   Clear
11:52 PM 82.9 °F 86.5 °F 69.1 °F 63% 29.59 in 10.0 mi South 16.1 mph - N/A   Clear